Date String (YYYY-MM-DD hh:mm:ss) UTC,Instrument flags,Ambient pressure (hPa),Sample flow (lpm),Bypass flow (lpm),Sample temperature (°C),Ambient temperature (°C),ASC tube jacket temperature (°C),LED temperature (°C),Box temperature (°C),Sample RH (%),Span deviation,Mass concentration (μg/m³),Mass concentration (μg/m³),Mass concentration (μg/m³)
DateTimeUTC,F1_M11,P_M11,Q1_M11,Q2_M11,T1_M11,T2_M11,T3_M11,T4_M11,T5_M11,U1_M11,ZSPAN_M11,X0_M11,X2_M11,X1_M11
2022-06-18 03:00:00,,0823.4,5.00,0.00,29.3,28.2,00.0,38.0,31.3,24.0,0003.3,0015.39,0010.81,0009.48
2022-06-18 03:01:00,,0823.4,5.00,0.00,29.3,28.3,00.0,38.0,31.3,24.0,0003.6,0015.28,0010.78,0009.48
2022-06-18 03:02:00,,0823.5,5.00,0.00,29.3,28.4,00.0,38.1,31.3,24.0,0003.7,0015.16,0010.75,0009.47
2022-06-18 03:03:00,,0823.5,5.00,0.00,29.4,28.5,00.0,38.1,31.4,24.0,0003.6,0015.15,0010.76,0009.49
2022-06-18 03:04:00,,0823.5,5.00,0.00,29.4,28.2,00.0,38.1,31.3,24.0,0003.8,0015.01,0010.80,0009.52
2022-06-18 03:05:00,,0823.5,5.00,0.00,29.3,27.3,00.0,38.0,31.1,24.0,0003.8,0015.12,0010.82,0009.55
2022-06-18 03:06:00,,0823.6,4.99,0.00,29.2,26.7,00.0,37.9,30.9,24.1,0003.7,0015.16,0010.83,0009.57
2022-06-18 03:07:00,,0823.5,5.01,0.00,29.1,26.7,00.0,37.9,30.9,24.2,0004.1,0015.30,0010.90,0009.59
2022-06-18 03:08:00,,0823.6,5.01,0.00,29.1,26.8,00.0,37.9,30.8,24.3,0003.8,0015.23,0010.91,0009.61
2022-06-18 03:09:00,,0823.6,5.00,0.00,29.1,27.0,00.0,37.9,30.9,24.3,0003.8,0015.36,0010.94,0009.61
2022-06-18 03:10:00,,0823.7,5.00,0.00,29.0,27.1,00.0,37.9,30.9,24.2,0003.7,0015.56,0011.01,0009.63
2022-06-18 03:11:00,,0823.6,5.00,0.00,29.0,27.3,00.0,37.9,30.9,24.2,0003.7,0015.69,0011.00,0009.63
2022-06-18 03:12:00,,0823.7,5.00,0.00,29.1,27.5,00.0,37.9,31.0,24.2,0003.5,0015.99,0010.99,0009.64
2022-06-18 03:13:00,,0823.6,5.00,0.00,29.1,27.7,00.0,37.9,31.0,24.2,0003.8,0016.05,0011.00,0009.63
2022-06-18 03:14:00,,0823.7,5.00,0.00,29.1,27.8,00.0,37.9,31.0,24.1,0003.8,0016.13,0011.03,0009.66
2022-06-18 03:15:00,,0823.6,5.00,0.00,29.1,27.9,00.0,37.9,31.1,24.1,0004.0,0016.13,0011.01,0009.64
2022-06-18 03:16:00,,0823.6,5.00,0.00,29.1,28.1,00.0,37.9,31.1,24.0,0003.8,0016.06,0011.00,0009.63
2022-06-18 03:17:00,,0823.7,4.99,0.00,29.2,28.2,00.0,38.0,31.2,23.9,0003.3,0015.93,0010.94,0009.58
2022-06-18 03:18:00,,0823.6,4.99,0.00,29.2,28.3,00.0,38.0,31.2,23.8,0003.0,0015.79,0010.87,0009.55
2022-06-18 03:19:00,,0823.7,4.99,0.00,29.2,28.3,00.0,38.0,31.2,23.7,0002.7,0015.90,0010.82,0009.51
2022-06-18 03:20:00,,0823.7,5.01,0.00,29.3,28.4,00.0,38.0,31.3,23.7,0002.6,0016.03,0010.82,0009.50
2022-06-18 03:21:00,,0823.7,4.99,0.00,29.3,28.5,00.0,38.0,31.3,23.6,0002.1,0016.48,0010.74,0009.44
2022-06-18 03:22:00,,0823.7,5.00,0.00,29.3,28.5,00.0,38.1,31.4,23.5,0002.0,0016.37,0010.67,0009.40
2022-06-18 03:23:00,,0823.7,5.00,0.00,29.3,27.9,00.0,38.0,31.2,23.5,0001.9,0015.99,0010.61,0009.38
2022-06-18 03:24:00,,0823.7,5.01,0.00,29.3,27.4,00.0,38.0,31.1,23.5,0001.5,0016.00,0010.61,0009.36
2022-06-18 03:25:00,,0823.7,5.00,0.00,29.2,27.3,00.0,38.0,31.0,23.5,0001.3,0015.99,0010.59,0009.32
2022-06-18 03:26:00,,0823.8,4.99,0.00,29.2,27.3,00.0,38.0,31.0,23.6,0000.9,0016.17,0010.61,0009.30
2022-06-18 03:27:00,,0823.8,5.00,0.00,29.2,27.4,00.0,38.0,31.0,23.6,0000.9,0016.21,0010.61,0009.28
2022-06-18 03:28:00,,0823.8,4.99,0.00,29.2,27.6,00.0,38.0,31.1,23.6,0001.3,0016.31,0010.65,0009.29
2022-06-18 03:29:00,,0823.8,5.00,0.00,29.2,27.7,00.0,38.0,31.1,23.6,0001.1,0016.33,0010.65,0009.27
2022-06-18 03:30:00,,0823.8,5.01,0.00,29.2,27.9,00.0,38.0,31.1,23.6,0001.2,0016.27,0010.65,0009.27
2022-06-18 03:31:00,,0823.8,5.01,0.00,29.2,28.0,00.0,38.0,31.2,23.6,0001.3,0016.43,0010.60,0009.22
2022-06-18 03:32:00,,0823.9,5.00,0.00,29.3,28.1,00.0,38.0,31.2,23.5,0001.5,0015.83,0010.62,0009.22
2022-06-18 03:33:00,,0823.9,5.00,0.00,29.3,28.2,00.0,38.0,31.3,23.5,0001.8,0016.06,0010.66,0009.25
2022-06-18 03:34:00,,0823.9,4.99,0.00,29.3,28.3,00.0,38.1,31.3,23.4,0002.1,0016.20,0010.69,0009.25
2022-06-18 03:35:00,,0823.9,5.00,0.00,29.3,28.4,00.0,38.1,31.3,23.3,0002.4,0016.23,0010.70,0009.24
2022-06-18 03:36:00,,0823.9,5.00,0.00,29.4,28.5,00.0,38.1,31.4,23.2,0002.6,0016.07,0010.66,0009.22
2022-06-18 03:37:00,,0823.9,5.00,0.00,29.4,28.5,00.0,38.1,31.4,23.1,0002.9,0016.00,0010.66,0009.23
2022-06-18 03:38:00,,0824.0,5.00,0.00,29.4,27.9,00.0,38.1,31.2,23.1,0002.6,0016.14,0010.70,0009.24
2022-06-18 03:39:00,,0824.0,4.99,0.00,29.3,27.4,00.0,38.0,31.1,23.2,0002.3,0016.11,0010.69,0009.25
2022-06-18 03:40:00,,0824.0,5.00,0.00,29.3,27.3,00.0,38.0,31.1,23.2,0002.8,0016.10,0010.69,0009.24
2022-06-18 03:41:00,,0824.0,5.01,0.00,29.2,27.3,00.0,38.0,31.1,23.2,0002.9,0015.91,0010.70,0009.25
2022-06-18 03:42:00,,0824.0,4.99,0.00,29.2,27.5,00.0,38.0,31.1,23.1,0003.2,0015.61,0010.74,0009.28
2022-06-18 03:43:00,,0824.0,5.00,0.00,29.2,27.6,00.0,38.0,31.1,23.1,0003.4,0015.60,0010.76,0009.29
2022-06-18 03:44:00,,0824.0,5.00,0.00,29.2,27.8,00.0,38.0,31.1,23.0,0003.2,0015.36,0010.74,0009.28
2022-06-18 03:45:00,,0824.0,4.99,0.00,29.3,27.9,00.0,38.1,31.2,23.0,0002.8,0015.30,0010.75,0009.30
2022-06-18 03:46:00,,0824.1,5.01,0.00,29.3,28.0,00.0,38.1,31.2,23.0,0002.5,0015.29,0010.77,0009.32
2022-06-18 03:47:00,,0824.1,5.00,0.00,29.3,28.1,00.0,38.1,31.3,22.9,0002.6,0015.55,0010.84,0009.34
2022-06-18 03:48:00,,0824.1,4.99,0.00,29.3,28.2,00.0,38.1,31.3,22.9,0002.7,0015.66,0010.80,0009.36
2022-06-18 03:49:00,,0824.1,5.00,0.00,29.3,28.3,00.0,38.1,31.3,22.8,0003.0,0015.59,0010.79,0009.37
2022-06-18 03:50:00,,0824.1,5.00,0.00,29.4,28.4,00.0,38.1,31.4,22.7,0003.2,0015.69,0010.81,0009.42
2022-06-18 03:51:00,,0824.1,5.02,0.00,29.4,28.5,00.0,38.1,31.4,22.7,0003.1,0015.86,0010.88,0009.48
2022-06-18 03:52:00,,0824.1,5.00,0.00,29.4,28.2,00.0,38.1,31.3,22.6,0003.0,0016.33,0010.97,0009.54
2022-06-18 03:53:00,,0824.1,5.00,0.00,29.4,27.6,00.0,38.1,31.2,22.6,0003.1,0016.83,0010.97,0009.57
2022-06-18 03:54:00,,0824.1,5.00,0.00,29.3,27.3,00.0,38.1,31.1,22.7,0002.9,0016.74,0010.95,0009.60
2022-06-18 03:55:00,,0824.1,5.01,0.00,29.3,27.3,00.0,38.1,31.1,22.7,0002.9,0016.83,0010.98,0009.63
2022-06-18 03:56:00,,0824.1,5.01,0.00,29.3,27.4,00.0,38.1,31.1,22.8,0003.0,0016.82,0010.99,0009.65
2022-06-18 03:57:00,,0824.1,4.99,0.00,29.2,27.6,00.0,38.1,31.1,22.8,0003.2,0016.84,0011.00,0009.68
2022-06-18 03:58:00,,0824.1,5.00,0.00,29.2,27.7,00.0,38.1,31.1,22.8,0003.4,0016.72,0011.00,0009.70
2022-06-18 03:59:00,,0824.0,4.99,0.00,29.3,27.8,00.0,38.1,31.2,22.7,0003.3,0016.68,0011.08,0009.70
